This is the latest recevied weather packets stored in our database for station/object EA7JCM-13. If no packets are shown the sender has not sent any weather packets the latest 10 day(s).
| Time | Temp. | Humidity | Pressure | Rain* | Wind** | Luminosity | Snow |
|---|---|---|---|---|---|---|---|
| 1777983303 | 17.78° C | 41% | 1010.5 hPa | 0 mm | - | - | - |
| 1777983003 | 17.78° C | 43% | 1010.4 hPa | 0 mm | - | - | - |
| 1777982703 | 17.78° C | 41% | 1010.5 hPa | 0 mm | - | - | - |
| 1777982403 | 17.78° C | 43% | 1010.6 hPa | 0 mm | - | - | - |
| 1777982103 | 17.22° C | 44% | 1010.7 hPa | 0 mm | - | - | - |
| 1777981803 | 17.78° C | 46% | 1010.6 hPa | 0 mm | - | - | - |
| 1777981503 | 17.22° C | 44% | 1010.6 hPa | 0 mm | - | - | - |
| 1777981203 | 17.78° C | 43% | 1010.8 hPa | 0 mm | - | - | - |
| 1777980903 | 16.67° C | 45% | 1010.9 hPa | 0 mm | - | - | - |
| 1777980603 | 16.67° C | 44% | 1010.8 hPa | 0 mm | - | - | - |
| 1777980304 | 17.22° C | 44% | 1010.9 hPa | 0 mm | - | - | - |
| 1777980003 | 17.78° C | 45% | 1010.9 hPa | 0 mm | - | - | - |
| 1777979703 | 17.22° C | 46% | 1011.1 hPa | 0 mm | - | - | - |
| 1777979403 | 17.22° C | 45% | 1011 hPa | 0 mm | - | - | - |
| 1777979104 | 17.22° C | 45% | 1011.1 hPa | 0 mm | - | - | - |
| 1777978803 | 16.67° C | 48% | 1010.9 hPa | 0 mm | - | - | - |
| 1777978503 | 16.67° C | 48% | 1010.9 hPa | 0 mm | - | - | - |
| 1777978203 | 17.78° C | 47% | 1011.2 hPa | 0 mm | - | - | - |
| 1777977903 | 17.22° C | 45% | 1011.1 hPa | 0 mm | - | - | - |
| 1777977603 | 16.67° C | 45% | 1011 hPa | 0 mm | - | - | - |
| 1777977303 | 16.67° C | 48% | 1011.1 hPa | 0 mm | - | - | - |
| 1777977003 | 17.22° C | 48% | 1011.1 hPa | 0 mm | - | - | - |
| 1777976704 | 16.11° C | 45% | 1011.2 hPa | 0 mm | - | - | - |
| 1777976404 | 16.67° C | 46% | 1011.2 hPa | 0 mm | - | - | - |
| 1777976103 | 16.67° C | 46% | 1011 hPa | 0 mm | - | - | - |
* Rain latest hour (hover to see other rain measurements)
** Current wind speed in m/s (hover to see current wind gust speed)